Location: North Runcton
(52.7000°N, 0.4333°E)
Time: 19:12:31
(UTC+00:00)

Cosmos 2322 Rocket - Pass Details

Date: 19 May 2025
Orbit: 832 x 849 km, 71.0° (Epoch: 23 June)

Event Time Altitude Azimuth Distance (km) Brightness Sun altitude
Rises 22:47:50 0° 329° (NNW) 3,419 6.9 -15.9°
Reaches altitude 10° 22:50:20 10° 333° (NNW) 2,478 5.9 -16.0°
Maximum altitude 22:55:57 59° 53° (NE) 969 2.6 -16.2°
Enters shadow 23:00:04 18° 129° (SE) 1,927 3.6 -16.3°
